SKYSAT-C2

Last updated on Sat Jul 05 2025 00:02:29 GMT+0000 (Coordinated Universal Time)

1 41773U 16058D 25185.65724108 .00007656 00000+0 24125-3 0 9996 2 41773 97.0529 217.3215 0003148 194.1649 165.9506 15.33158450491659
UTC large
Height (km)
Speed (km/s)
/
Latitude / Longitude
Inclination (degrees)
Orbital Period (minutes)
Azimuth
Elevation
Range (km)
Doppler Factor

Next 0 passes for location: London (51.5072 / 0.1276)

Sorry there are no passes over London.